Theta_e
317 318 319 319 322 323 323 322 318 314 316 322 323 329 330 330 330 327 325 324 324 320 319 320 321 323 323 323 323 323 323 324 324 326 327 325 323 321
320 319 321 320 323 323 322 322 321 320 316 322 325 328 329 329 330 326 325 324 321 320 320 318 318 319 319 319 319 320 321 321 321 321 323 324 323 322
323 322 321 321 322 322 323 323 323 323 319 323 326 328 327 327 327 326 325 323 322 321 319 318 316 316 316 316 316 317 318 318 318 319 319 320 320 320
323 322 322 323 321 321 324 323 323 324 322 320 324 325 326 327 325 323 324 324 319 319 318 317 315 314 313 313 312 313 312 312 313 315 316 317 318 318
323 323 323 324 322 322 324 323 324 324 324 322 321 322 321 323 321 317 318 317 319 321 316 315 314 314 313 312 311 310 308 307 307 308 309 311 313 314
322 324 324 324 323 323 323 323 323 322 322 321 319 317 317 316 318 317 314 311 311 314 314 314 314 314 313 312 312 312 308 306 305 305 305 305 305 306
322 323 324 323 320 320 323 322 322 320 319 317 315 313 312 311 314 312 312 309 311 312 311 310 309 308 308 309 311 311 308 306 305 304 304 302 301 302
321 322 322 319 316 313 314 315 319 318 316 315 312 310 309 309 307 308 307 307 307 311 310 310 308 308 307 306 307 305 304 303 303 303 302 301 301 300
322 322 324 322 320 321 312 312 310 310 312 316 314 312 309 310 308 306 306 307 309 311 311 309 308 305 307 305 304 303 302 301 301 301 301 300 299 298
322 322 323 322 320 320 319 314 314 313 314 316 315 314 312 311 312 312 311 310 309 304 306 305 300 299 301 304 303 301 300 299 299 299 299 299 298 297
322 322 323 320 305 305 314 311 310 308 302 304 301 300 300 305 310 315 310 309 303 301 302 300 298 301 302 300 302 301 299 298 298 298 299 298 298 297
319 318 310 315 300 301 312 309 309 307 307 305 303 299 300 300 302 307 308 301 297 298 301 302 300 298 297 298 298 297 295 298 298 297 298 298 297 295
315 313 313 301 298 298 304 308 307 304 302 303 303 304 303 303 301 301 301 302 299 298 302 300 297 297 295 294 295 295 294 293 293 293 296 295 296 295
313 312 306 297 297 297 303 300 295 301 304 305 305 304 304 303 303 303 302 301 301 300 299 301 296 294 291 289 289 292 291 291 291 291 291 293 294 294
310 305 295 294 294 297 295 295 298 303 304 303 302 300 301 302 300 300 299 298 298 298 298 295 293 291 290 288 288 288 288 289 291 289 290 290 290 290
298 296 295 295 295 296 297 298 301 305 305 302 299 298 297 298 297 297 296 295 294 292 294 294 291 290 287 288 288 286 286 286 288 287 287 287 290 290
294 292 292 293 293 292 293 297 301 303 301 298 297 296 296 296 295 295 294 292 291 289 288 289 290 290 290 289 286 285 285 285 285 286 287 286 287 288
294 292 291 292 294 293 294 295 299 302 300 299 296 297 296 296 295 293 292 291 290 288 287 287 286 285 285 286 292 285 284 283 286 286 286 285 285 288
297 293 293 292 294 295 298 299 300 302 299 298 297 296 296 295 294 293 293 292 289 288 287 287 285 283 280 279 284 292 285 284 285 284 285 285 285 286
299 297 296 295 295 297 300 301 301 298 298 296 296 295 296 295 294 293 294 292 290 288 287 286 286 284 282 281 283 285 288 283 283 283 282 283 285 289
301 301 301 300 300 300 302 303 302 300 299 297 295 296 296 297 295 294 293 289 288 288 286 286 287 285 286 285 281 281 284 289 289 283 282 281 280 279
305 305 305 305 306 306 303 303 302 297 297 297 296 297 298 298 295 294 292 290 289 288 288 288 288 286 284 282 277 280 280 281 286 288 289 286 276 275
303 306 306 305 308 307 304 303 301 300 299 298 298 297 298 296 295 294 293 292 290 289 288 286 284 284 283 282 276 275 279 278 278 278 279 287 287 288
Wind_Speed
4 5 4 3 4 3 5 5 7 4 3 4 3 8 8 7 7 6 5 7 9 8 8 7 7 7 7 6 5 5 5 5 7 7 9 11 12 13
3 6 6 3 5 5 5 4 4 7 4 2 3 11 9 7 7 5 4 6 6 6 5 6 6 6 6 6 5 5 6 6 8 9 11 11 10 13
5 7 7 6 5 5 5 5 5 6 8 4 6 8 11 10 6 4 4 3 3 6 5 5 5 6 6 6 6 7 8 9 8 9 10 11 12 14
6 8 8 6 7 6 5 6 5 4 8 11 6 4 11 8 5 5 3 3 3 4 5 6 6 8 7 7 8 9 10 9 9 11 11 12 13 14
7 8 8 10 8 7 7 7 7 6 6 7 5 4 4 4 4 4 2 2 0 5 7 7 8 8 8 8 11 11 8 9 10 10 11 12 14 16
5 6 9 9 10 9 8 7 8 8 7 7 6 4 3 3 4 3 2 0 3 1 3 4 3 5 9 7 6 8 6 7 10 12 12 12 14 17
5 6 7 9 10 9 7 7 7 6 5 5 4 3 3 3 3 3 2 1 2 1 2 2 2 2 2 3 6 9 9 8 9 10 10 10 9 11
7 7 9 12 12 14 13 11 7 4 3 3 2 3 3 3 3 3 3 2 2 2 1 2 2 4 4 5 4 5 2 6 6 11 15 16 16 15
7 7 8 7 9 8 7 6 2 5 1 5 6 5 5 6 6 3 3 3 3 1 1 3 4 4 3 5 10 12 15 17 18 19 18 15 14 14
6 5 8 8 7 7 5 1 1 5 5 3 6 6 4 7 5 5 6 3 3 2 2 3 2 2 1 3 15 18 18 14 14 14 13 13 14 13
5 5 6 6 8 8 5 5 4 4 7 8 11 10 10 9 7 5 4 4 2 1 4 3 1 3 3 3 5 11 11 10 10 12 17 19 19 14
4 5 8 6 9 8 6 6 7 3 5 6 6 8 7 7 6 2 5 4 3 2 3 4 3 2 2 1 1 4 4 12 13 15 16 15 17 7
5 4 3 8 9 9 8 5 5 7 5 6 6 5 5 6 5 5 5 6 5 3 3 4 2 2 2 2 2 4 5 4 4 6 10 13 13 12
5 4 4 8 8 10 8 7 9 8 5 5 5 4 4 4 5 8 10 11 9 7 4 4 3 2 2 2 3 4 4 3 5 7 5 8 11 14
4 6 9 7 8 5 8 11 8 5 5 5 5 3 3 5 7 9 10 13 12 8 7 5 5 3 3 3 2 4 5 4 5 5 7 8 7 6
8 6 5 6 6 6 5 3 4 5 5 6 4 4 4 4 4 4 7 5 6 4 6 7 7 4 3 3 3 2 2 3 5 4 4 4 8 8
8 4 2 2 4 3 2 3 4 5 5 4 4 4 4 4 3 3 3 2 5 3 3 5 4 5 5 5 3 2 3 3 3 4 6 7 5 6
4 4 4 4 5 5 5 4 2 4 4 5 4 6 6 5 6 3 3 4 7 3 3 1 3 3 5 3 4 0 2 3 5 6 5 7 8 7
4 5 5 6 6 6 5 4 4 4 5 5 6 6 6 6 8 7 6 7 3 4 2 2 2 3 3 0 4 1 5 4 6 5 5 6 8 9
3 6 7 8 6 7 7 6 5 6 5 6 6 6 7 9 8 7 7 5 6 4 3 1 2 2 3 2 0 3 7 3 3 7 8 4 5 13
6 5 7 8 7 7 7 5 6 8 8 8 7 7 7 8 6 5 5 7 5 4 4 3 2 4 3 3 4 4 4 10 8 5 8 5 7 4
9 8 6 5 7 7 7 8 7 7 7 8 8 8 7 7 8 7 6 5 4 4 4 3 2 2 3 3 1 3 3 4 8 14 14 9 1 6
8 8 6 6 7 8 8 9 10 10 10 9 8 9 10 10 7 6 6 7 6 5 3 2 1 3 2 2 2 2 3 4 2 4 4 8 13 13
Wind_Direction
109 105 94 81 90 95 114 135 142 137 107 87 122 128 125 119 129 118 125 149 137 154 163 160 178 176 194 208 220 239 258 266 266 254 242 245 251 262
112 106 91 85 84 85 89 83 83 122 113 84 65 131 128 118 134 113 116 126 153 168 170 182 193 199 214 230 240 253 262 258 253 255 257 258 259 262
107 109 102 109 105 96 87 89 76 98 118 102 115 127 131 134 123 116 130 153 169 189 189 197 215 226 232 245 255 257 263 256 259 264 266 265 264 263
112 114 122 120 106 103 110 99 98 87 122 119 122 139 126 125 122 138 148 171 164 193 199 213 224 237 238 247 254 255 258 270 266 264 259 263 268 272
114 128 121 130 120 109 110 115 114 101 100 121 112 71 79 101 101 89 106 66 242 215 212 220 229 241 254 251 252 258 272 285 289 297 297 294 287 280
97 120 120 129 125 112 105 102 111 102 96 102 99 88 86 61 79 112 97 123 237 247 238 239 268 272 270 304 298 297 287 288 308 298 288 284 281 275
97 96 94 101 101 102 115 107 99 99 103 104 105 97 101 104 149 161 157 38 330 326 354 1 339 351 354 337 346 342 324 300 281 278 276 272 278 323
127 109 111 111 103 97 97 98 97 114 123 112 95 108 128 146 122 117 100 74 6 2 148 42 27 37 23 27 336 287 329 41 24 20 13 8 358 347
108 120 121 107 114 113 113 105 128 191 155 148 141 167 150 164 136 132 130 142 190 275 114 70 24 55 9 47 51 53 43 35 30 27 21 13 5 350
108 103 113 123 127 127 124 71 276 161 151 173 161 160 150 158 147 160 159 140 70 32 39 119 359 90 286 56 45 52 42 41 38 33 23 17 7 353
108 117 125 128 137 126 128 133 119 74 42 94 90 96 93 137 134 117 150 130 117 17 352 114 14 60 25 49 39 49 48 45 34 24 18 11 2 351
105 112 127 139 158 174 154 156 125 131 128 116 91 67 84 85 118 111 133 112 113 87 323 76 35 45 42 47 84 37 27 24 19 15 11 356 346 344
139 145 156 167 178 177 160 160 164 146 120 105 104 102 75 67 73 84 97 119 105 77 299 101 68 52 94 307 1 18 21 11 354 4 356 347 341 353
163 158 153 165 174 174 164 161 150 122 119 111 102 93 109 106 78 76 72 73 62 91 17 116 119 117 94 10 357 345 351 7 12 357 339 335 350 352
144 140 127 137 133 128 149 152 134 107 115 117 131 113 107 115 109 96 86 83 68 50 38 52 97 98 83 81 44 345 349 337 352 336 347 342 334 327
102 101 112 114 101 117 116 124 123 142 145 136 126 116 117 103 112 112 109 99 96 53 26 46 60 93 108 100 96 345 284 326 328 326 326 325 321 307
110 96 99 98 128 140 123 139 130 128 132 140 139 126 120 125 88 96 107 102 95 113 38 11 38 81 79 117 76 312 297 290 282 316 342 319 288 297
107 148 180 179 179 177 171 162 156 151 150 138 130 141 139 128 121 97 84 103 122 122 104 355 24 51 33 6 99 320 298 303 336 332 315 314 312 326
154 167 178 187 192 181 177 166 172 172 149 151 151 145 133 129 138 140 136 125 119 116 119 160 87 107 116 228 297 65 20 348 336 325 318 309 303 316
188 180 193 193 182 187 182 179 160 151 155 155 154 150 151 151 150 148 141 139 144 134 146 159 92 108 128 182 203 288 8 353 326 329 324 282 262 283
207 204 196 188 189 188 183 168 166 173 170 162 156 156 156 156 144 133 144 145 142 131 133 124 206 139 117 76 27 330 324 329 333 327 314 308 334 329
205 210 202 184 187 176 167 167 165 160 167 169 165 156 151 144 137 150 148 160 170 139 122 126 118 74 61 92 215 295 309 312 321 313 325 355 29 334
207 207 196 184 186 180 176 180 173 170 174 170 164 160 158 155 144 157 150 160 140 126 121 127 99 66 89 101 170 266 299 304 295 293 300 339 336 334